Regional Weather Roundup
Issued by NWS Kansas City/Pleasant Hill, MO

Home | Current Version | Previous Version | Text Only | Print | Product List | Glossary On
Versions: 1 2 3 4 5 6 7 8 9 10 11 12 13 14 15 16 17 18 19 20 21 22 23 24 25 26 27 28 29 30 31 32 33 34 35 36 37 38 39 40 41 42 43 44 45 46 47 48 49 50
000
ASUS43 KEAX 280611
RWREAX

WEATHER ROUNDUP FOR EASTERN KANSAS AND NORTHWEST MISSOURI
NATIONAL WEATHER SERVICE KANSAS CITY/PLEASANT HILL MO
1200 AM CST SUN DEC 28 2014

KSZ040-057-103>105-MOZ028-029-037-043-280700-
...KANSAS CITY METROPOLITAN AREA...

CITY           SKY/WX    TMP DP  RH WIND       PRES   REMARKS
K.C. INTL      CLEAR     23  19  85 W5        30.26S WCI  17
6HR MIN TEMP:  21; 6HR MAX TEMP:  27;

K.C. DOWNTOWN  CLEAR     26  19  74 CALM      30.28F
6HR MIN TEMP:  26; 6HR MAX TEMP:  31;

LEES SUMMIT    CLEAR     23  18  81 W5        30.27S WCI  17
6HR MIN TEMP:  22; 6HR MAX TEMP:  28;

OLATHE - IXD   CLEAR     23  18  81 W3        30.28S
6HR MIN TEMP:  22; 6HR MAX TEMP:  28;

OLATHE - OJC   CLEAR     23  18  81 W3        30.26S
6HR MIN TEMP:  22; 6HR MAX TEMP:  30;

LAWRENCE       CLEAR     17  14  88 CALM      30.30R

$$

MOZ001>008-011>017-020>025-030>033-038>040-044>046-053-054-280700-
...NORTHERN AND CENTRAL MISSOURI...

CITY           SKY/WX    TMP DP  RH WIND       PRES   REMARKS
ST. JOSEPH     CLEAR     22  17  81 W3        30.27F
6HR MIN TEMP:  19; 6HR MAX TEMP:  26;

MOSBY            N/A     21  21 100 CALM      30.28S
WARRENSBURG    CLEAR     23  21  93 CALM      30.29R
WHITEMAN AFB   CLEAR     23  19  86 NW5       30.27R WCI  17
CLINTON        CLEAR     27  23  86 CALM      30.28F
SEDALIA        CLEAR     27  22  81 NW5       30.27S WCI  22
6HR MIN TEMP:  27; 6HR MAX TEMP:  33;

WARSAW         NOT AVBL
MARSHALL       CLOUDY    30  25  80 W3        30.28S
CHILLICOTHE      N/A     22  18  85 CALM      30.27F
6HR MIN TEMP:  22; 6HR MAX TEMP:  30;

MOBERLY        CLOUDY    30  21  69 NW7       30.25S WCI  23
KIRKSVILLE     CLOUDY    26  22  84 NW9       30.24S WCI  17
6HR MIN TEMP:  26; 6HR MAX TEMP:  30;


$$

MOZ041-047>049-056>058-063>065-088>090-097-280700-
...EASTERN AND SOUTHERN MISSOURI...

CITY           SKY/WX    TMP DP  RH WIND       PRES   REMARKS
ST. LOUIS INTL CLOUDY    34  26  72 NW10      30.22R WCI  26
6HR MIN TEMP:  34; 6HR MAX TEMP:  36; 6HR PCP:  0.01;

SPIRIT OF STL  CLOUDY    33  26  75 NW10      30.23R WCI  25
COLUMBIA       CLOUDY    29  23  78 NW10      30.24S WCI  20
JEFFERSON CITY CLOUDY    31  23  72 NW7       30.27R WCI  24
MEXICO         CLOUDY    32  28  86 W12       30.24R WCI  23
HANNIBAL       CLOUDY    32  21  64 W9        30.23S WCI  24
ROLLA          CLOUDY    29  25  85 NW9       30.20F WCI  20
LEBANON        CLOUDY    30  25  80 CALM      30.22F
OSAGE BEACH    CLOUDY    30  23  74 W6        30.25S WCI  24
SPRINGFIELD    PTCLDY    27  23  85 NW7       30.22F WCI  19
BRANSON        CLOUDY    30  27  86 NW3       30.24S
NEVADA         CLEAR     23  19  86 NW5       30.28F WCI  17
JOPLIN         CLEAR     24  21  88 NW3       30.27F
WEST PLAINS    CLOUDY    32  27  81 NW8       30.20S WCI  25

$$

IAZ060-094-KSZ022-034>040-054-083-096-NEZ052-066-093-280700-
...KANSAS...SOUTHEAST NEBRASKA AND IOWA...

CITY           SKY/WX    TMP DP  RH WIND       PRES   REMARKS
TOPEKA         CLEAR     24  19  81 W3        30.29S
6HR MIN TEMP:  22; 6HR MAX TEMP:  30;

MANHATTAN      CLEAR     18  15  88 CALM      30.28F
EMPORIA        CLEAR     19  15  84 SW3       30.28F
CHANUTE        CLEAR     22  18  85 NW6       30.30S WCI  14
WICHITA        CLEAR     20  16  84 CALM      30.29F
OMAHA          CLEAR     20  15  81 S5        30.22F WCI  13
LINCOLN        CLEAR     17  12  80 CALM      30.22F
FALLS CITY     CLEAR     20  16  84 SW5       30.25F WCI  13
LAMONI         CLEAR     19  16  88 W6        30.21F WCI  11
DES MOINES     FAIR      19  14  81 W5        30.20F WCI  12

$$




USA.gov is the U.S. government's official web portal to all federal, state and local government web resources and services.